{"data":{"norad_id":64260,"intl_designator":"2025-120E","name":"STARLINK-34281","alt_names":[],"object_type":"PAYLOAD","status":"ACTIVE","operator":null,"country":"US","launch_date":"2025-06-04","launch_site_code":"AFWTR","launch_vehicle":null,"mission":null,"orbit_class":"UNKNOWN","rcs_meters":null,"size_class":null,"mass_kg":null,"dimensions":null,"purposes":["comms"],"wikipedia_slug":null,"has_3d_model":false,"image_url":null,"decayed_at":null,"tle_current":{"epoch":"2026-05-24T22:47:34.020384Z","epoch_age_seconds":73274,"freshness":"FRESH","line1":"1 64260U 25120E   26144.94969931  .00021212  00000+0  61828-3 0  9990","line2":"2 64260  53.1587 120.2199 0001460 226.6158 133.4723 15.35348972 55576","mean_motion":15.35348972,"eccentricity":0.000146,"inclination_deg":53.1587,"raan_deg":120.2199,"arg_perigee_deg":226.6158,"mean_anomaly_deg":133.4723,"bstar":0.00061828,"rev_number":5557,"period_min":93.789752444632,"perigee_km":458.88579722243,"apogee_km":460.88249939773,"semimajor_km":6838.0211483101,"source":"CELESTRAK","updated_at":"2026-05-25T13:38:20.357610Z"}}}